Location: Bear Valley
(38.4650°N, 120.0390°W)
Time: 00:37:18
(UTC-07:00)

N. Korean satellite - Visible Passes

Search period start: 19 October 2019 00:00
Search period end: 29 October 2019 00:00
Orbit: 455 x 508 km, 97.2° (Epoch: 18 October)

Date Brightness Start Highest point End Pass type
(mag) Time Alt. Az. Time Alt. Az. Time Alt. Az.
19 Oct 9.7 06:08:35 10° NE 06:11:18 20° E 06:14:02 10° SE visible
21 Oct 9.8 18:58:57 10° SW 19:01:22 18° W 19:03:49 10° NW visible
22 Oct 8.6 06:25:32 10° NNE 06:28:52 33° E 06:32:12 10° SSE visible
22 Oct 8.1 18:32:44 10° S 18:35:57 40° W 18:39:14 10° NNW visible
23 Oct 10.0 06:01:05 10° NE 06:03:27 16° E 06:05:49 10° SE visible
24 Oct 10.4 19:18:04 10° WSW 19:18:57 11° W 19:19:49 10° WNW visible
25 Oct 7.3 06:42:44 10° NNE 06:46:21 60° E 06:49:59 10° S visible
25 Oct 9.4 18:50:41 10° SSW 18:53:27 23° W 18:56:16 10° NW visible
26 Oct 9.1 06:17:49 10° NE 06:21:00 27° E 06:24:10 10° SSE visible
27 Oct 10.2 05:53:42 10° ENE 05:55:32 13° E 05:57:22 10° ESE visible
28 Oct 10.1 19:09:08 10° SW 19:10:58 14° W 19:12:50 10° WNW visible
